When you browse on this site, cookies collect data to enhance your experience and personalize the content and advertising you see.
Visit our Privacy Policy to learn more. By continuing to use the site, you agree to this use of cookies and data.
  • In Sweden
  • List of Countries
  • For 7 days
  • Water Temperature
  • Weather Map
  • Weather Widgets
  • user-avatar
    Login

    Hourly Weather Carvin

    Today, 16 November, Saturday

    Time Temperature Precipitation Wind Pressure Humidity
    00:00 +3°C° 0 mm 4 mps 749 mmHg 85%
    01:00 +3°C° 0 mm 4 mps 749 mmHg 86%
    02:00 +1°C° 0 mm 4 mps 750 mmHg 87%
    03:00 +1°C° 0 mm 4 mps 750 mmHg 89%
    04:00 +2°C° 0 mm 3 mps 750 mmHg 90%
    05:00 +1°C° 0 mm 3 mps 750 mmHg 91%
    06:00 +1°C° 0 mm 3 mps 751 mmHg 92%
    07:00 +1°C° 0 mm 3 mps 751 mmHg 90%
    08:00 +2°C° 0 mm 3 mps 752 mmHg 88%
    09:00 +2°C° 0 mm 3 mps 752 mmHg 86%
    10:00 +4°C° 0 mm 3 mps 752 mmHg 82%
    11:00 +5°C° 0 mm 3 mps 753 mmHg 79%
    12:00 +7°C° 0 mm 3 mps 753 mmHg 76%
    13:00 +7°C° 0 mm 3 mps 753 mmHg 77%
    14:00 +7°C° 0 mm 2 mps 753 mmHg 78%
    15:00 +7°C° 0 mm 2 mps 753 mmHg 79%
    16:00 +6°C° 0 mm 2 mps 753 mmHg 81%
    17:00 +6°C° 0 mm 2 mps 754 mmHg 84%
    18:00 +4°C° 0 mm 3 mps 754 mmHg 87%
    19:00 +5°C° 0 mm 2 mps 755 mmHg 88%
    20:00 +4°C° 0 mm 2 mps 755 mmHg 89%
    21:00 +4°C° 0 mm 2 mps 755 mmHg 90%
    22:00 +4°C° 0 mm 2 mps 755 mmHg 90%
    23:00 +3°C° 0 mm 2 mps 755 mmHg 90%

    Tomorrow, 17 November, Sunday

    Time Temperature Precipitation Wind Pressure Humidity
    00:00 +3°C° 0 mm 2 mps 756 mmHg 90%
    01:00 +3°C° 0 mm 2 mps 755 mmHg 91%
    02:00 +3°C° 0 mm 2 mps 755 mmHg 91%
    03:00 +4°C° 0 mm 1 mps 755 mmHg 91%
    04:00 +4°C° 0 mm 1 mps 755 mmHg 91%
    05:00 +4°C° 0 mm 1 mps 755 mmHg 91%
    06:00 +4°C° 0 mm 1 mps 755 mmHg 91%
    07:00 +4°C° 0 mm 1 mps 756 mmHg 88%
    08:00 +5°C° 0 mm 1 mps 756 mmHg 86%
    09:00 +5°C° 0 mm 1 mps 756 mmHg 84%
    10:00 +6°C° 0 mm 1 mps 756 mmHg 80%
    11:00 +7°C° 0 mm 1 mps 755 mmHg 76%
    12:00 +8°C° 0 mm 1 mps 755 mmHg 72%
    13:00 +8°C° 0 mm 1 mps 755 mmHg 73%
    14:00 +8°C° 0 mm 1 mps 755 mmHg 75%
    15:00 +8°C° 0 mm 1 mps 755 mmHg 77%
    16:00 +6°C° 0 mm 2 mps 755 mmHg 80%
    17:00 +5°C° 0 mm 2 mps 755 mmHg 83%
    18:00 +4°C° 0 mm 2 mps 755 mmHg 87%
    19:00 +4°C° 0 mm 2 mps 755 mmHg 87%
    20:00 +4°C° 0 mm 2 mps 755 mmHg 88%
    21:00 +5°C° 0 mm 1 mps 755 mmHg 89%
    22:00 +5°C° 0 mm 1 mps 755 mmHg 89%
    23:00 +5°C° 0 mm 1 mps 755 mmHg 90%

    Day after tomorrow, 18 November, Monday

    Time Temperature Precipitation Wind Pressure Humidity
    00:00 +5°C° 0 mm 1 mps 755 mmHg 91%
    01:00 +5°C° 0 mm 1 mps 755 mmHg 91%
    02:00 +6°C° 0 mm 1 mps 755 mmHg 90%
    03:00 +6°C° 0 mm 1 mps 754 mmHg 90%
    04:00 +5°C° 0.1 mm 2 mps 754 mmHg 91%
    05:00 +5°C° 0.1 mm 2 mps 754 mmHg 91%
    06:00 +5°C° 0.1 mm 2 mps 754 mmHg 92%
    07:00 +6°C° 0.3 mm 2 mps 754 mmHg 92%
    08:00 +6°C° 0.3 mm 2 mps 754 mmHg 92%
    09:00 +7°C° 0.3 mm 2 mps 754 mmHg 91%
    10:00 +7°C° 0.2 mm 2 mps 754 mmHg 86%
    11:00 +8°C° 0.2 mm 2 mps 754 mmHg 80%
    12:00 +9°C° 0.2 mm 3 mps 754 mmHg 75%
    13:00 +8°C° 0.2 mm 3 mps 753 mmHg 78%
    14:00 +8°C° 0.2 mm 3 mps 753 mmHg 80%
    15:00 +7°C° 0.2 mm 4 mps 753 mmHg 83%
    16:00 +7°C° 0.4 mm 4 mps 753 mmHg 86%
    17:00 +6°C° 0.4 mm 4 mps 753 mmHg 88%
    18:00 +6°C° 0.4 mm 4 mps 753 mmHg 90%
    19:00 +7°C° 1 mm 3 mps 753 mmHg 90%
    20:00 +7°C° 1 mm 3 mps 753 mmHg 91%
    21:00 +7°C° 1 mm 3 mps 753 mmHg 91%
    22:00 +7°C° 0.3 mm 3 mps 753 mmHg 90%
    23:00 +6°C° 0.3 mm 4 mps 753 mmHg 89%

    19 November, Tuesday

    Time Temperature Precipitation Wind Pressure Humidity
    00:00 +6°C° 0.3 mm 4 mps 754 mmHg 88%
    01:00 +6°C° 0.1 mm 4 mps 754 mmHg 87%
    02:00 +7°C° 0.1 mm 3 mps 754 mmHg 85%
    03:00 +5°C° 0.1 mm 3 mps 754 mmHg 84%
    04:00 +5°C° 0 mm 3 mps 754 mmHg 84%
    05:00 +4°C° 0 mm 3 mps 754 mmHg 83%
    06:00 +4°C° 0 mm 3 mps 754 mmHg 83%
    07:00 +4°C° 0 mm 3 mps 755 mmHg 82%
    08:00 +4°C° 0 mm 3 mps 755 mmHg 80%
    09:00 +4°C° 0 mm 3 mps 755 mmHg 78%
    10:00 +5°C° 0 mm 3 mps 755 mmHg 74%
    11:00 +7°C° 0 mm 3 mps 755 mmHg 70%
    12:00 +7°C° 0 mm 3 mps 755 mmHg 66%
    13:00 +7°C° 0 mm 2 mps 755 mmHg 67%
    14:00 +7°C° 0 mm 2 mps 755 mmHg 69%
    15:00 +7°C° 0 mm 1 mps 755 mmHg 71%
    16:00 +7°C° 0 mm 1 mps 755 mmHg 74%
    17:00 +6°C° 0 mm 1 mps 756 mmHg 76%
    18:00 +5°C° 0 mm 1 mps 756 mmHg 79%
    19:00 +5°C° 0 mm 1 mps 756 mmHg 81%
    20:00 +4°C° 0 mm 2 mps 756 mmHg 84%
    21:00 +4°C° 0 mm 2 mps 756 mmHg 86%
    22:00 +4°C° 0 mm 2 mps 756 mmHg 87%
    23:00 +4°C° 0 mm 2 mps 756 mmHg 88%

    20 November, Wednesday

    Time Temperature Precipitation Wind Pressure Humidity
    00:00 +5°C° 0 mm 2 mps 756 mmHg 90%
    01:00 +3°C° 0 mm 3 mps 756 mmHg 91%
    02:00 +3°C° 0 mm 3 mps 756 mmHg 92%
    03:00 +3°C° 0 mm 3 mps 755 mmHg 93%
    04:00 +2°C° 0 mm 3 mps 756 mmHg 92%
    05:00 +2°C° 0 mm 3 mps 756 mmHg 92%
    06:00 +2°C° 0 mm 3 mps 756 mmHg 92%
    07:00 +1°C° 0 mm 4 mps 755 mmHg 89%
    08:00 +3°C° 0 mm 4 mps 755 mmHg 87%
    09:00 +3°C° 0 mm 4 mps 755 mmHg 85%
    10:00 +4°C° 0 mm 4 mps 755 mmHg 80%
    11:00 +5°C° 0 mm 5 mps 755 mmHg 75%
    12:00 +6°C° 0 mm 5 mps 754 mmHg 70%
    13:00 +6°C° 0 mm 4 mps 754 mmHg 72%
    14:00 +6°C° 0 mm 4 mps 753 mmHg 73%
    15:00 +6°C° 0 mm 4 mps 753 mmHg 75%
    16:00 +5°C° 0 mm 4 mps 753 mmHg 78%
    17:00 +4°C° 0 mm 4 mps 753 mmHg 80%
    18:00 +4°C° 0 mm 4 mps 752 mmHg 83%
    19:00 +4°C° 0 mm 4 mps 752 mmHg 83%
    20:00 +3°C° 0 mm 4 mps 752 mmHg 82%
    21:00 +3°C° 0 mm 4 mps 752 mmHg 82%
    22:00 +3°C° 0 mm 4 mps 751 mmHg 82%
    23:00 +3°C° 0 mm 4 mps 751 mmHg 82%

    21 November, Thursday

    Time Temperature Precipitation Wind Pressure Humidity
    00:00 +3°C° 0 mm 4 mps 751 mmHg 82%
    01:00 +4°C° 0 mm 4 mps 750 mmHg 80%
    02:00 +5°C° 0 mm 4 mps 750 mmHg 78%
    03:00 +5°C° 0 mm 4 mps 750 mmHg 76%
    04:00 +6°C° 0 mm 4 mps 750 mmHg 76%
    05:00 +6°C° 0 mm 4 mps 750 mmHg 77%
    06:00 +6°C° 0 mm 4 mps 750 mmHg 77%
    07:00 +6°C° 0 mm 5 mps 750 mmHg 74%
    08:00 +5°C° 0 mm 5 mps 750 mmHg 71%
    09:00 +5°C° 0 mm 5 mps 750 mmHg 69%
    10:00 +6°C° 0 mm 5 mps 749 mmHg 65%
    11:00 +7°C° 0 mm 6 mps 749 mmHg 61%
    12:00 +8°C° 0 mm 6 mps 749 mmHg 57%
    13:00 +9°C° 0 mm 5 mps 748 mmHg 59%
    14:00 +10°C° 0 mm 4 mps 748 mmHg 62%
    15:00 +10°C° 0 mm 3 mps 747 mmHg 64%
    16:00 +8°C° 0 mm 5 mps 747 mmHg 65%
    17:00 +8°C° 0 mm 6 mps 748 mmHg 67%
    18:00 +8°C° 0 mm 7 mps 748 mmHg 69%
    19:00 +7°C° 0.7 mm 6 mps 748 mmHg 74%
    20:00 +7°C° 0.7 mm 6 mps 748 mmHg 79%
    21:00 +6°C° 0.7 mm 5 mps 747 mmHg 83%
    22:00 +6°C° 0.1 mm 5 mps 747 mmHg 82%
    23:00 +6°C° 0.1 mm 5 mps 747 mmHg 81%
    Show more